Terminal Aerodrome Forecast
Issued by NWS

Home | Current Version | Previous Version | Text Only | Print | Product List | Glossary On
Versions: 1 2 3 4 5 6 7 8 9 10 11 12 13 14 15 16 17 18 19 20 21 22 23 24 25
000
FTUS45 KLKN 031128
TAFTPH
TAF
KTPH 031128Z 0312/0412 01010KT P6SM SCT150
     FM032000 20010G20KT P6SM FEW120
     FM040300 22007KT P6SM SKC=

USA.gov is the U.S. government's official web portal to all federal, state and local government web resources and services.